Tracking 19969 objects as of 13-Nov-2019
Live streaming from Space Station
objects crossing your sky now
Track the group of recently launched Starlink satellites

CZ-3B R/B

Track CZ-3B R/B now!


NORAD ID: 41587
Int'l Code: 2016-037B
Perigee: 214.4 km
Apogee: 30,317.1 km
Inclination: 19.5 °
Period: 527.9 minutes
Semi major axis: 21636 km
RCS: Unknown
Launch date: June 12, 2016
Source: People's Republic of China (PRC)
Launch site: Xichang Space Center, China (XSC)

Note: This is a ROCKET BODY
aabbcc
Your satellite tracking list
Your tracking list is empty




NASA's NSSDC Master Catalog

Two Line Element Set (TLE):
1 41587U 16037B   19316.27636760  .00015888  00000-0  12667-2 0  9993
2 41587  19.4997 279.8201 6956400 143.1081 295.2001  2.72781753 32021
Source of the keplerian elements: AFSPC